Location: Santa Giusta
(39.8800°N, 8.6069°E)
Time: 17:40:04
(UTC+00:00)

USA 215 - Pass Details

Date: 02 February 2023
Orbit: 1102 x 1105 km, 123.0° (Epoch: 27 March)

Event Time Altitude Azimuth Distance (km) Brightness Sun altitude
Rises 17:11:54 0° 126° (SE) 3,908 5.8 -5.6°
Reaches altitude 10° 17:14:23 10° 125° (SE) 2,953 5.2 -6.0°
Maximum altitude 17:20:53 78° 40° (NE) 1,129 3.3 -7.2°
Drops below altitude 10° 17:27:26 10° 316° (NW) 2,965 5.9 -8.4°
Sets 17:29:55 0° 315° (NW) 3,925 6.6 -8.9°
